Data for 08/09/2018

Time Sea-Level Adjusted Pressure Absolute Pressure Temperature Relative Humidity Dew Point   
(mb) (inHg) (mb) (inHg) (C) (F) (%) (C) (F)
00:05 1023 30.21 853 25.19 19.1 66.4 33 2.4 36.4
00:10 1023 30.21 853 25.19 18.7 65.6 34 2.6 36.6
00:15 1023 30.21 853 25.19 18.3 64.9 36 3.1 37.6
00:20 1023 30.21 853 25.19 18 64.4 33 1.8 35.3
00:25 1023 30.21 853 25.19 18.2 64.8 35 2.7 36.8
00:30 1023 30.21 853 25.19 17.8 64 36 2.5 36.6
00:35 1023 30.21 853 25.19 17.5 63.6 36 2.6 36.6
00:40 1023 30.21 853 25.19 17.6 63.6 35 2.1 35.8
00:45 1023 30.21 853 25.19 17.8 64 35 2.3 36.2
00:50 1023 30.21 853 25.19 17.5 63.6 36 2.6 36.7
00:55 1023 30.21 853 25.19 17.2 63 38 2.8 37
01:00 1023 30.21 853 25.19 16.8 62.3 38 2.5 36.6
01:05 1023 30.21 853 25.19 16.6 61.9 38 2.5 36.4
01:10 1023 30.21 853 25.19 16.8 62.2 35 1.4 34.4
01:15 1023 30.21 853 25.19 17.5 63.5 32 0.8 33.4
01:20 1023 30.21 853 25.19 18.1 64.5 31 0.7 33.3
01:25 1023 30.21 853 25.19 18.1 64.6 32 1.1 34
01:30 1023 30.21 853 25.19 18 64.4 31 0.7 33.3
01:35 1023 30.21 853 25.19 18 64.4 31 1 33.8
01:40 1023 30.21 853 25.19 17.7 63.9 33 1.2 34.2
01:45 1023 30.21 853 25.19 17.4 63.2 33 1.2 34.2
01:50 1023 30.21 853 25.19 17.1 62.7 33 0.9 33.6
01:55 1023 30.21 853 25.19 17.3 63.1 32 0.3 32.6
02:00 1023 30.21 853 25.19 17.3 63.1 32 0.6 33
02:05 1023 30.21 853 25.19 17 62.6 32 0.2 32.4
02:10 1024 30.24 853 25.19 17.1 62.7 31 0 32
02:15 1024 30.24 853 25.19 17 62.7 32 0.2 32.4
02:20 1024 30.24 853 25.19 17 62.6 31 -0.1 31.8
02:25 1024 30.24 853 25.19 17.4 63.3 29 -0.5 31
02:30 1024 30.24 853 25.19 17.6 63.6 29 -0.4 31.3
02:35 1024 30.24 853 25.19 17.6 63.6 30 -0.1 31.8
02:40 1024 30.24 853 25.19 17.4 63.2 30 -0.2 31.6
02:45 1024 30.24 853 25.19 17.3 63.2 30 -0.1 31.8
02:50 1024 30.24 853 25.19 17.1 62.7 31 -0.1 31.8
02:55 1024 30.24 853 25.19 16.8 62.2 32 0 32
03:00 1024 30.24 853 25.19 16.7 62 31 -0.3 31.4
03:05 1024 30.24 853 25.19 16.9 62.3 30 -0.6 31
03:10 1024 30.24 853 25.19 17.3 63.2 29 -0.5 31.1
03:15 1024 30.24 853 25.19 17.7 63.8 29 -0.5 31
03:20 1024 30.24 853 25.19 17.7 63.8 30 0.1 32.1
03:25 1024 30.24 853 25.19 17.8 64 28 -0.8 30.5
03:30 1024 30.24 853 25.19 17.6 63.6 31 0.3 32.5
03:35 1024 30.24 853 25.19 17 62.6 32 0.3 32.6
03:40 1024 30.24 853 25.19 16.7 62.1 32 -0 32
03:45 1024 30.24 853 25.19 16.6 61.9 33 0.3 32.6
03:50 1024 30.24 853 25.19 16.4 61.5 35 1.1 34
03:55 1024 30.24 853 25.19 15.6 60 38 1.4 34.5
04:00 1024 30.24 853 25.19 15.6 60 36 0.7 33.2
04:05 1024 30.24 853 25.19 15.8 60.4 36 1 33.8
04:10 1024 30.24 853 25.19 15.4 59.7 37 0.9 33.6
04:15 1024 30.24 853 25.19 15.2 59.4 38 0.9 33.6
04:20 1024 30.24 853 25.19 15.4 59.7 38 1.1 33.9
04:25 1024 30.24 853 25.19 15.5 59.8 34 -0.3 31.4
04:30 1024 30.24 853 25.19 15.7 60.2 36 0.6 33.1
04:35 1024 30.24 853 25.19 15.5 59.8 34 -0 31.9
04:40 1024 30.24 853 25.19 15.4 59.8 35 0.1 32.3
04:45 1024 30.24 853 25.19 15.4 59.7 35 0.1 32.1
04:50 1024 30.24 853 25.19 15.3 59.5 37 0.6 33
04:55 1024 30.24 853 25.19 15.5 59.8 32 -0.9 30.4
05:00 1024 30.24 853 25.19 16.2 61.1 32 -0.4 31.2
05:05 1024 30.24 853 25.19 16.3 61.3 31 -0.6 30.9
05:10 1024 30.24 853 25.19 16.1 60.9 33 0 32.1
05:15 1024 30.24 853 25.19 15.6 60.1 34 -0.1 31.8
05:20 1024 30.24 853 25.19 15.5 60 34 -0.1 31.8
05:25 1024 30.24 853 25.19 15.5 59.9 34 -0.2 31.6
05:30 1024 30.24 853 25.19 15.6 60.1 34 -0.1 31.7
05:35 1024 30.24 853 25.19 16.1 60.9 31 -0.8 30.6
05:40 1024 30.24 853 25.19 16.5 61.7 32 -0.2 31.7
05:45 1024 30.24 853 25.19 16.2 61.2 33 -0 31.9
05:50 1024 30.24 853 25.19 15.9 60.6 33 -0.4 31.4
05:55 1024 30.24 853 25.19 16.2 61.1 32 -0.3 31.5
06:00 1024 30.24 854 25.22 16.4 61.5 31 -0.5 31.1
06:05 1024 30.24 854 25.22 16.5 61.6 32 -0.1 31.9
06:10 1024 30.24 854 25.22 16.2 61.2 33 0.1 32.2
06:15 1024 30.24 854 25.22 16.1 61 33 -0.2 31.7
06:20 1024 30.24 854 25.22 16.2 61.1 32 -0.4 31.3
06:25 1024 30.24 854 25.22 16.4 61.6 32 -0.3 31.4
06:30 1024 30.24 854 25.22 16.6 61.9 31 -0.4 31.2
06:35 1024 30.24 854 25.22 16.4 61.5 33 0.2 32.4
06:40 1024 30.24 854 25.22 15.8 60.4 36 0.7 33.3
06:45 1025 30.27 854 25.22 15.4 59.8 35 0.1 32.1
06:50 1025 30.27 854 25.22 15.8 60.5 33 -0.4 31.4
06:55 1025 30.27 854 25.22 16.3 61.3 33 0 32.1
07:00 1025 30.27 854 25.22 16.2 61.1 34 0.5 33
07:05 1025 30.27 854 25.22 15.8 60.4 35 0.4 32.7
07:10 1025 30.27 854 25.22 15.9 60.5 36 1.1 33.9
07:15 1025 30.27 854 25.22 15.8 60.4 38 1.7 35
07:20 1025 30.27 854 25.22 15.6 60 39 1.7 35
07:25 1025 30.27 854 25.22 15.8 60.5 39 1.9 35.5
07:30 1025 30.27 854 25.22 16 60.7 39 2.2 36
07:35 1025 30.27 854 25.22 16.1 61 38 1.8 35.3
07:40 1025 30.27 854 25.22 16.3 61.4 37 1.9 35.4
07:45 1025 30.27 854 25.22 16.5 61.7 40 3.1 37.5
07:50 1025 30.27 854 25.22 16.4 61.5 39 2.5 36.5
07:55 1025 30.27 854 25.22 16.5 61.7 41 3.2 37.8
08:00 1025 30.27 854 25.22 16.7 62.1 38 2.5 36.5
08:05 1025 30.27 855 25.25 17.1 62.7 36 2.1 35.8
08:10 1025 30.27 855 25.25 17.5 63.5 37 2.7 36.8
08:15 1025 30.27 855 25.25 17.8 64.1 36 2.6 36.7
08:20 1025 30.27 855 25.25 18.3 65 37 3.4 38.2
08:25 1025 30.27 855 25.25 18.6 65.5 35 3.2 37.7
08:30 1025 30.27 855 25.25 19 66.2 36 3.8 38.9
08:35 1025 30.27 855 25.25 19.2 66.5 36 3.8 38.9
08:40 1025 30.27 855 25.25 19.6 67.3 36 4.2 39.6
08:45 1025 30.27 855 25.25 20.1 68.2 36 4.8 40.7
08:50 1025 30.27 855 25.25 20.4 68.7 34 4.2 39.6
08:55 1025 30.27 855 25.25 20.4 68.8 33 4 39.2
09:00 1025 30.27 855 25.25 21.2 70.2 34 4.9 40.8
09:05 1025 30.27 855 25.25 21.5 70.8 32 4.3 39.7
09:10 1025 30.27 855 25.25 21.6 71 31 3.9 39
09:15 1025 30.27 855 25.25 22 71.6 33 5.4 41.6
09:20 1025 30.27 855 25.25 22.6 72.7 31 5 40.9
09:25 1025 30.27 855 25.25 23.3 74 29 4.6 40.2
09:30 1026 30.3 855 25.25 23.7 74.7 28 4.2 39.5
09:35 1026 30.3 855 25.25 23.5 74.3 28 4 39.3
09:40 1026 30.3 855 25.25 23.2 73.8 27 3.6 38.4
09:45 1026 30.3 855 25.25 23.4 74.2 27 3.7 38.6
09:50 1026 30.3 855 25.25 23.6 74.6 29 4.6 40.3
09:55 1026 30.3 855 25.25 23.4 74 28 4 39.2
10:00 1026 30.3 855 25.25 24.2 75.5 28 4.9 40.8
10:05 1026 30.3 855 25.25 24.5 76.1 25 3.2 37.8
10:10 1026 30.3 855 25.25 25 77 24 3.4 38.2
10:15 1026 30.3 855 25.25 25.7 78.2 24 3.8 38.9
10:20 1026 30.3 855 25.25 25 77 24 3.4 38.1
10:25 1026 30.3 855 25.25 24.7 76.4 25 3.3 38
10:30 1026 30.3 855 25.25 25.6 78 23 3.3 38
10:35 1026 30.3 855 25.25 26.3 79.4 23 3.6 38.5
10:40 1026 30.3 855 25.25 26.9 80.3 22 3.6 38.5
10:45 1026 30.3 855 25.25 27 80.6 23 4.6 40.3
10:50 1025 30.27 855 25.25 26.5 79.7 22 3.4 38.1
10:55 1025 30.27 855 25.25 26.8 80.3 21 3.3 37.9
11:00 1025 30.27 855 25.25 27 80.6 22 3.9 39
11:05 1026 30.3 855 25.25 27.1 80.7 22 3.6 38.5
11:10 1026 30.3 855 25.25 27.5 81.5 21 3.7 38.6
11:15 1026 30.3 855 25.25 27.7 81.9 20 3.1 37.5
11:20 1026 30.3 855 25.25 27.1 80.8 21 2.9 37.3
11:25 1026 30.3 855 25.25 27.5 81.4 21 3.7 38.7
11:30 1026 30.3 855 25.25 27.1 80.8 21 3 37.4
11:35 1026 30.3 855 25.25 27.1 80.8 20 2.6 36.6
11:40 1026 30.3 855 25.25 28 82.4 19 2.3 36.1
11:45 1025 30.27 855 25.25 28.4 83 18 1.7 35.1
11:50 1025 30.27 855 25.25 27.7 81.8 20 2.9 37.3
11:55 1025 30.27 855 25.25 27.7 81.8 20 2.7 36.9
12:00 1025 30.27 855 25.25 27.9 82.3 20 3.1 37.6
12:05 1025 30.27 855 25.25 27.9 82.1 18 2 35.5
12:10 1025 30.27 855 25.25 27.4 81.4 19 1.7 35.1
12:15 1025 30.27 855 25.25 27.8 82 17 1 33.9
12:20 1025 30.27 854 25.22 28 82.4 19 2.3 36.1
12:25 1025 30.27 854 25.22 28.1 82.7 18 1.8 35.2
12:30 1025 30.27 854 25.22 27.8 82.1 17 1.2 34.1
12:35 1025 30.27 854 25.22 28 82.3 18 1.5 34.6
12:40 1025 30.27 854 25.22 28.8 83.8 16 0.7 33.2
12:45 1025 30.27 854 25.22 29.5 85.1 17 2.1 35.7
12:50 1025 30.27 854 25.22 29.8 85.6 17 2.7 36.8
12:55 1025 30.27 854 25.22 30.5 86.8 16 1.9 35.3
13:00 1025 30.27 854 25.22 30.4 86.6 16 2.1 35.8
13:05 1025 30.27 854 25.22 30.8 87.4 15 1.2 34.2
13:10 1025 30.27 854 25.22 29.9 85.8 14 0.2 32.4
13:15 1025 30.27 854 25.22 30.4 86.6 15 1.3 34.3
13:20 1025 30.27 854 25.22 30.7 87.2 14 0.6 33
13:25 1025 30.27 854 25.22 30.4 86.6 14 0.3 32.5
13:30 1025 30.27 854 25.22 31.4 88.5 13 0.4 32.7
13:35 1025 30.27 854 25.22 31.7 89 12 -0.7 30.7
13:40 1025 30.27 854 25.22 30.4 86.6 14 0.5 32.9
13:45 1025 30.27 854 25.22 30.5 86.8 15 1.1 34
13:50 1025 30.27 854 25.22 31.2 88.1 14 0.6 33.1
13:55 1025 30.27 854 25.22 31.3 88.4 13 -0.2 31.6
14:00 1025 30.27 854 25.22 31.3 88.3 13 -0.2 31.7
14:05 1025 30.27 854 25.22 31.9 89.4 12 -0.5 31
14:10 1025 30.27 854 25.22 31.9 89.4 11 -1.3 29.7
14:15 1025 30.27 854 25.22 32.2 89.9 12 -0.5 31
14:20 1025 30.27 854 25.22 32.5 90.4 12 -0.7 30.8
14:25 1025 30.27 854 25.22 32.4 90.3 11 -1.2 29.9
14:30 1025 30.27 854 25.22 32.5 90.4 11 -1.9 28.6
14:35 1025 30.27 854 25.22 32.3 90.2 10 -2.7 27.1
14:40 1025 30.27 854 25.22 32.1 89.8 10 -3.4 25.9
14:45 1025 30.27 854 25.22 32.6 90.6 11 -1.7 29
14:50 1024 30.24 854 25.22 32.3 90.2 11 -1.6 29.2
14:55 1024 30.24 854 25.22 32.4 90.2 10 -2.6 27.3
15:00 1024 30.24 854 25.22 32.3 90.1 10 -2.2 28
15:05 1024 30.24 854 25.22 32.6 90.7 10 -2.2 28.1
15:10 1024 30.24 854 25.22 32.7 90.9 11 -1.8 28.8
15:15 1024 30.24 854 25.22 32.6 90.7 10 -2.4 27.7
15:20 1024 30.24 853 25.19 32.8 91 11 -1.7 29
15:25 1024 30.24 853 25.19 31.6 89 12 -1.4 29.5
15:30 1024 30.24 853 25.19 31.9 89.4 11 -1.4 29.5
15:35 1024 30.24 853 25.19 32.5 90.5 10 -2.5 27.6
15:40 1024 30.24 853 25.19 33.1 91.6 10 -2.6 27.4
15:45 1024 30.24 853 25.19 32.9 91.3 10 -3 26.6
15:50 1024 30.24 853 25.19 32.8 91.1 9 -4 24.8
15:55 1024 30.24 853 25.19 33.1 91.6 8 -5.7 21.7
16:00 1024 30.24 853 25.19 32.1 89.7 9 -5 23.1
16:05 1024 30.24 853 25.19 32.7 90.9 8 -6 21.2
16:10 1024 30.24 853 25.19 33.1 91.5 7 -7.6 18.3
16:15 1024 30.24 853 25.19 32.9 91.2 8 -5.5 22.2
16:20 1024 30.24 853 25.19 32.9 91.1 8 -6 21.2
16:25 1024 30.24 853 25.19 32.8 91.1 8 -5.5 22.2
16:30 1024 30.24 853 25.19 33.1 91.5 9 -3.5 25.8
16:35 1024 30.24 853 25.19 33.6 92.4 9 -3.2 26.2
16:40 1024 30.24 853 25.19 33.1 91.6 9 -3 26.6
16:45 1024 30.24 853 25.19 32.7 90.9 10 -2.3 27.9
16:50 1024 30.24 853 25.19 32.6 90.6 9 -3.5 25.7
16:55 1024 30.24 853 25.19 32.8 91 10 -2.8 27
17:00 1024 30.24 853 25.19 33.1 91.6 9 -3.1 26.4
17:05 1024 30.24 853 25.19 33.5 92.2 9 -2.7 27.2
17:10 1024 30.24 853 25.19 33 91.4 10 -2.4 27.8
17:15 1024 30.24 853 25.19 32.9 91.1 10 -1.9 28.6
17:20 1024 30.24 853 25.19 32.8 91 10 -2.1 28.2
17:25 1024 30.24 853 25.19 32.9 91.2 11 -1.7 29
17:30 1024 30.24 853 25.19 32.6 90.6 10 -2 28.5
17:35 1024 30.24 853 25.19 32.6 90.6 11 -1.7 29
17:40 1024 30.24 853 25.19 32.9 91.2 10 -2 28.4
17:45 1024 30.24 853 25.19 32.6 90.7 10 -2.2 28.1
17:50 1024 30.24 853 25.19 32.6 90.6 11 -1.6 29.1
17:55 1024 30.24 853 25.19 32.5 90.6 11 -1.2 29.9
18:00 1024 30.24 853 25.19 32.7 90.9 10 -1.8 28.7
18:05 1024 30.24 853 25.19 32.9 91.3 10 -1.9 28.7
18:10 1024 30.24 853 25.19 32.8 91.1 10 -2.3 27.9
18:15 1024 30.24 853 25.19 32.3 90.2 11 -2.1 28.2
18:20 1024 30.24 853 25.19 32 89.6 10 -2.4 27.6
18:25 1024 30.24 853 25.19 32.2 89.9 11 -1.6 29.2
18:30 1023 30.21 853 25.19 32.4 90.2 10 -2.2 28.1
18:35 1023 30.21 853 25.19 32.6 90.7 11 -1.5 29.4
18:40 1023 30.21 853 25.19 32.8 91 10 -2 28.3
18:45 1023 30.21 853 25.19 32.4 90.2 11 -1.6 29.1
18:50 1023 30.21 853 25.19 31.9 89.5 12 -0.9 30.3
18:55 1023 30.21 853 25.19 31.5 88.6 11 -1.6 29.1
19:00 1023 30.21 853 25.19 31.1 87.9 11 -2.6 27.4
19:05 1023 30.21 853 25.19 30.8 87.4 13 -0.6 31
19:10 1023 30.21 853 25.19 30.6 87.1 11 -2.5 27.6
19:15 1023 30.21 853 25.19 30.5 87 13 -0.9 30.4
19:20 1023 30.21 853 25.19 30.5 87 11 -2.3 27.8
19:25 1023 30.21 853 25.19 30.5 87 12 -2 28.4
19:30 1023 30.21 853 25.19 30.4 86.8 12 -1.3 29.7
19:35 1023 30.21 853 25.19 30.3 86.6 14 0.6 33.1
19:40 1023 30.21 853 25.19 30 85.9 17 2.6 36.6
19:45 1023 30.21 853 25.19 29.6 85.2 15 0.7 33.3
19:50 1023 30.21 853 25.19 29.6 85.2 18 3 37.4
19:55 1023 30.21 853 25.19 29.4 84.9 20 4.1 39.3
20:00 1023 30.21 853 25.19 28.9 84.1 21 4.7 40.4
20:05 1023 30.21 853 25.19 28.3 83 23 5.5 41.8
20:10 1023 30.21 853 25.19 27.9 82.1 24 5.6 42.1
20:15 1023 30.21 853 25.19 27.2 81 25 5.7 42.2
20:20 1023 30.21 853 25.19 26.8 80.3 25 5.7 42.2
20:25 1023 30.21 853 25.19 26.2 79.1 26 5.2 41.4
20:30 1023 30.21 853 25.19 25.7 78.3 25 4.8 40.6
20:35 1023 30.21 853 25.19 25.2 77.4 27 5.2 41.4
20:40 1024 30.24 853 25.19 24.6 76.3 27 4.8 40.6
20:45 1024 30.24 853 25.19 24.2 75.6 28 4.9 40.8
20:50 1024 30.24 853 25.19 23.9 75.1 26 3.6 38.5
20:55 1024 30.24 853 25.19 23.5 74.4 30 5.3 41.5
21:00 1024 30.24 853 25.19 22.6 72.6 32 5.2 41.4
21:05 1024 30.24 853 25.19 22.1 71.7 33 5.2 41.3
21:10 1024 30.24 853 25.19 22 71.5 31 4 39.3
21:15 1024 30.24 853 25.19 22.4 72.3 26 2.4 36.4
21:20 1024 30.24 853 25.19 22.6 72.6 29 3.9 39
21:25 1024 30.24 853 25.19 22.6 72.6 25 2 35.6
21:30 1024 30.24 853 25.19 22.4 72.2 23 0.6 33
21:35 1024 30.24 853 25.19 22.5 72.6 24 1.4 34.5
21:40 1024 30.24 853 25.19 22.5 72.6 22 0 32.1
21:45 1024 30.24 853 25.19 22.5 72.5 22 0.1 32.1
21:50 1024 30.24 853 25.19 22.8 73 20 -1.2 29.8
21:55 1024 30.24 853 25.19 22.3 72.1 20 -1.3 29.6
22:00 1024 30.24 853 25.19 22.2 72 20 -1.6 29
22:05 1024 30.24 853 25.19 22.6 72.8 23 0.7 33.3
22:10 1024 30.24 853 25.19 22.8 73 19 -1.7 28.9
22:15 1024 30.24 853 25.19 22.6 72.6 24 1.1 33.9
22:20 1024 30.24 853 25.19 21.9 71.4 22 -0.4 31.3
22:25 1024 30.24 853 25.19 21.6 70.9 25 0.9 33.6
22:30 1024 30.24 853 25.19 21.4 70.5 23 -0.5 31
22:35 1024 30.24 853 25.19 21.5 70.8 22 -1 30.1
22:40 1024 30.24 853 25.19 21.6 71 22 -0.8 30.6
22:45 1024 30.24 853 25.19 21.4 70.5 24 0.4 32.7
22:50 1024 30.24 853 25.19 20.9 69.5 23 -1 30.2
22:55 1024 30.24 853 25.19 20.9 69.5 23 -0.7 30.8
23:00 1024 30.24 853 25.19 20.7 69.2 24 -0.4 31.4
23:05 1024 30.24 853 25.19 20.4 68.7 25 -0.1 31.9
23:10 1024 30.24 853 25.19 20.5 68.9 26 0.4 32.6
23:15 1024 30.24 853 25.19 20.3 68.6 26 0.4 32.8
23:20 1024 30.24 853 25.19 19.9 67.8 24 -1.4 29.5
23:25 1024 30.24 853 25.19 20.4 68.8 23 -1.3 29.6
23:30 1024 30.24 853 25.19 20.5 69 24 -0.7 30.8
23:35 1024 30.24 853 25.19 20.4 68.6 25 -0.4 31.3
23:40 1024 30.24 853 25.19 20.2 68.4 25 -0.1 31.9
23:45 1024 30.24 853 25.19 19.7 67.4 26 0 32.1
23:50 1024 30.24 853 25.19 19.6 67.2 25 -0.8 30.6
23:55 1024 30.24 853 25.19 20.2 68.3 24 -0.9 30.3
24:00 1024 30.24 853 25.19 20.4 68.7 24 -0.4 31.2